Other Public Products
Issued by NWS Charleston, SC

Home | Current Version | Previous Version | Text Only | Print | Product List | Glossary On
Versions: 1 2 3 4 5 6 7 8 9 10 11 12 13 14 15 16 17 18 19 20 21 22 23 24 25 26 27 28 29 30 31 32 33 34 35 36 37 38 39 40 41 42 43 44 45 46 47 48 49 50
981
FPUS82 KCHS 192227
OPUCHS

TEST...KCHS/KSAV Gateway Observations...TEST
National Weather Service Charleston SC
500 PM EST SUN FEB 19 2017

NOTE: "fair" indicates few or no clouds below 12,000 feet with no
significant weather and/or obstructions to visibility.

SCZ050-WAZ558-NCZ071-TXZ119-213-PAZ071-DCZ001-FLZ074-172-MI076-
NYZ176-178-MAZ016-IL014-TNZ027-NJZ106-GAZ044-MD014-192300-
...Gateway Observations for Charleston International...

CITY           SKY/WX    TMP DP  RH WIND       PRES   REMARKS
Chas Airport   SUNNY     73  46  38 N15       29.99S
Seattle        LGT RAIN  45  39  79 S10       29.49S
Charlotte      SUNNY     71  42  35 NW5       30.02S
Dallas DFW     CLOUDY    75  66  73 SE18G28   29.83F
Dallas Love    CLOUDY    76  64  66 SE18      29.84F
Philladelphia  PTCLDY    68  32  26 W13       29.87R
Wash National  PTCLDY    70  39  32 W17       29.94R
Baltimore      PTCLDY    67  39  35 NW13G24   29.91R
Miami          PTSUNNY   80  65  59 W14       29.99S
Detroit        MOSUNNY   64  27  24 NW14      30.04R
Newark         PTCLDY    65  31  28 W14G22    29.84R
Laguardia      PTCLDY    61  31  32 NW12      29.83R
J F K          PTCLDY    65  32  29 NW15G24   29.85R
Boston Logan   PTCLDY    58  30  34 NW9       29.74R
Ft. Lauderdale PTSUNNY   79  70  74 NE16      29.99R
Chicago O`Hare MOSUNNY   65  32  29 E10       30.04S
Chicago Midway PTSUNNY   63  31  30 E8        30.05S
Houston Bush   PTSUNNY   78  67  68 SE18      29.87S
Houston Hobby  PTSUNNY   77  66  68 SE14G23   29.87S
Nashville      MOSUNNY   70  49  47 VRB5      30.11S
Atlanta        MOSUNNY   67  47  48 NW13G22   30.08S

$$

GAZ044-118-TXZ119-213-NCZ071-DCZ001-MDZ014-506-PAZ021-071-NJZ106-
NYZ176-178-MAZ106-OHZ011-021-055-MIZ076-KYZ091-ILZ014-INZ047-
MNZ060-192300-
...Gateway Observations for Savannah International...

CITY           SKY/WX    TMP DP  RH WIND       PRES   REMARKS
Savannah Arpt  MOSUNNY   76  47  35 NW12      30.01R
Atlanta        MOSUNNY   67  47  48 NW13G22   30.08S
Charlotte      SUNNY     71  42  35 NW5       30.02S
Dallas DFW     CLOUDY    75  66  73 SE18G28   29.83F
Houston Bush   PTSUNNY   78  67  68 SE18      29.87S
Wash National  PTCLDY    70  39  32 W17       29.94R
Wash Dulles    CLEAR     66  37  34 NW15      29.95R
Baltimore      PTCLDY    67  39  35 NW13G24   29.91R
Philadelphia   PTCLDY    68  32  26 W13       29.87R
Newark         PTCLDY    65  31  28 W14G22    29.84R
Laguardia      PTCLDY    61  31  32 NW12      29.83R
J F K          PTCLDY    65  32  29 NW15G24   29.85R
Boston         PTCLDY    58  30  34 NW9       29.74R
Pittsburg      MOSUNNY   63  36  36 W16       30.00R
Akron          MOSUNNY   62  33  33 W13       30.03R
Cleveland      SUNNY     61  29  29 W13       30.06R
Cincinnati     MOSUNNY   59  47  64 SW6       30.11R
Columbus       SUNNY     53  46  77 SW7       30.10S
Detroit        MOSUNNY   64  27  24 NW14      30.04R
Chicago O`Hare MOSUNNY   65  32  29 E10       30.04S
Minneapolis    CLOUDY    59  40  49 SE15      29.88S
Indianapolis   MOSUNNY   64  43  46 W5        30.09R

$$




USA.gov is the U.S. government's official web portal to all federal, state and local government web resources and services.